FW9289 Weather Reports


time (UTC)temp
C
wind
direction
speed
KPH
gust
KPH
rain 1hr
cm
rain 24hr
cm
rain mn
cm
humidity
%
barometer
mb
20260505071041 13 0 0.0 3.2 0.00 0.00 0.00 89 1012.2
20260505070543 13 0 0.0 8.0 0.00 0.00 0.00 88 1012.2
20260505070051 13 0 1.6 8.0 0.00 0.00 0.00 87 1012.2
20260505065543 13 219 0.0 4.8 0.00 0.00 0.00 88 1012.1
20260505065041 13 0 0.0 0.0 0.00 0.00 0.00 88 1012.1
20260505064549 13 0 0.0 0.0 0.00 0.00 0.00 88 1012.0
20260505064041 13 0 0.0 0.0 0.00 0.00 0.00 87 1012.0
20260505063546 13 0 0.0 0.0 0.00 0.00 0.00 88 1012.0
20260505063052 13 0 0.0 0.0 0.00 0.00 0.00 88 1012.0
20260505062545 13 0 0.0 0.0 0.00 0.00 0.00 87 1011.9
20260505062042 13 0 0.0 0.0 0.00 0.00 0.00 86 1011.9
20260505061557 14 0 0.0 0.0 0.00 0.00 0.00 86 1011.9
20260505061042 14 0 0.0 3.2 0.00 0.00 0.00 86 1011.9
20260505060545 14 0 0.0 3.2 0.00 0.00 0.00 85 1011.8
20260505060055 14 246 1.6 3.2 0.00 0.00 0.00 85 1011.9
20260505055546 15 0 0.0 3.2 0.00 0.00 0.00 84 1011.9
20260505055045 15 0 0.0 3.2 0.00 0.00 0.00 84 1011.9
20260505054551 15 246 0.0 3.2 0.00 0.00 0.00 83 1011.8
20260505054042 15 0 0.0 0.0 0.00 0.00 0.00 84 1011.8
20260505053542 15 0 0.0 0.0 0.00 0.00 0.00 82 1011.7
20260505053102 15 0 0.0 3.2 0.00 0.00 0.00 82 1011.7
20260505052545 15 0 0.0 3.2 0.00 0.00 0.00 81 1011.7
20260505052042 15 0 0.0 6.4 0.00 0.00 0.00 80 1011.5
20260505051554 15 188 0.0 6.4 0.00 0.00 0.00 80 1011.5
20260505051043 16 188 1.6 9.7 0.00 0.00 0.00 79 1011.4
20260505050542 16 61 0.0 9.7 0.00 0.00 0.00 79 1011.4
20260505041548 15 0 0.0 3.2 0.00 0.00 0.00 81 1010.6
20260505041044 15 40 0.0 0.0 0.00 0.00 0.00 81 1010.5
20260505040541 15 0 0.0 3.2 0.00 0.00 0.00 80 1010.6
20260505040049 15 0 0.0 3.2 0.00 0.00 0.00 79 1010.4
20260505035541 15 0 0.0 3.2 0.00 0.00 0.00 80 1010.5
20260505035046 15 0 0.0 4.8 0.00 0.00 0.00 80 1010.4
20260505034548 15 0 0.0 4.8 0.00 0.00 0.00 79 1010.4
20260505034043 16 0 0.0 3.2 0.00 0.00 0.00 78 1010.3
20260505033547 16 0 0.0 0.0 0.00 0.00 0.00 79 1010.2
20260505033105 16 0 0.0 0.0 0.00 0.00 0.00 78 1010.2
20260505032546 16 0 0.0 0.0 0.00 0.00 0.00 78 1010.1
20260505032042 16 0 0.0 0.0 0.00 0.00 0.00 77 1010.1
20260505031549 16 0 0.0 0.0 0.00 0.00 0.00 76 1010.0
20260505031046 17 0 0.0 0.0 0.00 0.00 0.00 75 1010.0
20260505030542 17 0 0.0 0.0 0.00 0.00 0.00 74 1010.0
20260505030046 17 0 0.0 0.0 0.00 0.00 0.00 74 1010.0
20260505025542 17 0 0.0 0.0 0.00 0.00 0.00 74 1010.0
20260505025041 17 0 0.0 0.0 0.00 0.00 0.00 72 1009.9
20260505024547 17 0 0.0 0.0 0.00 0.00 0.00 71 1009.9
20260505024041 18 0 0.0 0.0 0.00 0.00 0.00 70 1009.9
20260505023541 18 0 0.0 0.0 0.00 0.00 0.00 69 1009.9
20260505023059 18 0 0.0 0.0 0.00 0.00 0.00 68 1009.8
20260505022544 18 0 0.0 0.0 0.00 0.00 0.00 66 1009.8
20260505022047 19 0 0.0 0.0 0.00 0.00 0.00 65 1009.9
20260505021549 20 0 0.0 0.0 0.00 0.00 0.00 64 1009.8
20260505021041 20 0 0.0 0.0 0.00 0.00 0.00 62 1009.9
20260505020542 21 0 0.0 0.0 0.00 0.00 0.00 59 1009.9
20260505020051 21 0 0.0 6.4 0.00 0.00 0.00 56 1009.9
20260505015541 21 0 0.0 6.4 0.00 0.00 0.00 54 1009.9
20260505015045 21 196 0.0 0.0 0.00 0.00 0.00 45 1009.8
20260505014548 22 0 0.0 4.8 0.00 0.00 0.00 56 1009.8
20260505014044 22 0 0.0 6.4 0.00 0.00 0.00 52 1009.8
20260505013542 23 0 1.6 6.4 0.00 0.00 0.00 47 1009.6
20260505013049 24 0 1.6 6.4 0.00 0.00 0.00 44 1009.7
20260505012542 23 127 1.6 6.4 0.00 0.00 0.00 43 1009.7
20260505012043 23 301 1.6 8.0 0.00 0.00 0.00 48 1009.7
20260505011559 24 0 0.0 8.0 0.00 0.00 0.00 43 1009.8
20260505011043 24 120 1.6 4.8 0.00 0.00 0.00 39 1009.7
20260505010543 23 132 0.0 8.0 0.00 0.00 0.00 40 1009.8
20260505010054 24 66 0.0 8.0 0.00 0.00 0.00 42 1009.8
20260505005544 25 0 1.6 8.0 0.00 0.00 0.00 38 1009.9
20260505005043 25 134 0.0 8.0 0.00 0.00 0.00 39 1009.8
20260505004559 25 245 1.6 4.8 0.00 0.00 0.00 40 1009.8
20260505004042 25 0 1.6 8.0 0.00 0.00 0.00 40 1009.7
20260505003542 26 0 0.0 9.7 0.00 0.00 0.00 36 1009.8
20260505003048 26 88 1.6 11.3 0.00 0.00 0.00 36 1009.7
20260505002544 26 228 1.6 11.3 0.00 0.00 0.00 35 1009.7
20260505002043 26 259 3.2 9.7 0.00 0.00 0.00 34 1009.6
20260505001552 26 0 1.6 11.3 0.00 0.00 0.00 35 1009.6
20260505001043 26 242 3.2 11.3 0.00 0.00 0.00 34 1009.6
20260505000546 26 227 3.2 8.0 0.00 0.00 0.00 34 1009.6
20260505000050 26 0 3.2 11.3 0.00 0.00 0.00 34 1009.6
20260504235542 26 117 1.6 11.3 0.00 0.00 0.00 34 1009.6
20260504235044 27 109 3.2 11.3 0.00 0.00 0.00 32 1009.7
20260504234614 26 153 3.2 11.3 0.00 0.00 0.00 33 1009.7
20260504234041 26 219 4.8 11.3 0.00 0.00 0.00 33 1009.7
20260504233545 27 142 3.2 9.7 0.00 0.00 0.00 35 1009.7
20260504233053 27 33 0.0 14.5 0.00 0.00 0.00 33 1009.8
20260504232544 26 58 8.0 16.1 0.00 0.00 0.00 33 1009.6
20260504232044 26 155 1.6 16.1 0.00 0.00 0.00 33 1009.7
20260504231554 27 44 3.2 11.3 0.00 0.00 0.00 33 1009.8
20260504231043 27 0 4.8 11.3 0.00 0.00 0.00 32 1009.8
20260504230544 27 210 1.6 16.1 0.00 0.00 0.00 34 1009.7
20260504230046 27 76 3.2 16.1 0.00 0.00 0.00 36 1009.8
20260504225544 26 240 3.2 16.1 0.00 0.00 0.00 33 1009.9
20260504225047 26 111 4.8 12.9 0.00 0.00 0.00 33 1009.9
20260504224555 27 280 3.2 14.5 0.00 0.00 0.00 32 1010.0
20260504224043 27 82 1.6 14.5 0.00 0.00 0.00 32 1010.2
20260504223543 27 246 3.2 12.9 0.00 0.00 0.00 37 1010.2
20260504223051 27 105 3.2 12.9 0.00 0.00 0.00 34 1010.3
20260504222546 27 121 3.2 14.5 0.00 0.00 0.00 34 1010.3
20260504222044 27 121 4.8 16.1 0.00 0.00 0.00 33 1010.3
20260504221601 27 196 1.6 16.1 0.00 0.00 0.00 34 1010.4
20260504221045 27 90 3.2 14.5 0.00 0.00 0.00 32 1010.4
20260504220544 26 33 3.2 14.5 0.00 0.00 0.00 34 1010.4
20260504220054 26 355 3.2 14.5 0.00 0.00 0.00 36 1010.5
20260504215546 27 142 4.8 16.1 0.00 0.00 0.00 33 1010.5
20260504215047 27 13 3.2 16.1 0.00 0.00 0.00 32 1010.6
20260504214551 26 115 6.4 16.1 0.00 0.00 0.00 32 1010.4
20260504214041 27 159 3.2 14.5 0.00 0.00 0.00 33 1010.4
20260504213545 27 331 4.8 12.9 0.00 0.00 0.00 33 1010.6
20260504213101 27 102 1.6 14.5 0.00 0.00 0.00 31 1010.5
20260504212545 27 129 3.2 14.5 0.00 0.00 0.00 36 1010.6
20260504212042 27 138 3.2 12.9 0.00 0.00 0.00 32 1010.5
20260504211547 27 82 3.2 12.9 0.00 0.00 0.00 33 1010.7
20260504211045 27 77 4.8 19.3 0.00 0.00 0.00 33 1010.5
20260504210545 26 121 3.2 19.3 0.00 0.00 0.00 34 1010.7
20260504210056 26 179 6.4 19.3 0.00 0.00 0.00 32 1010.7
20260504205549 26 153 3.2 17.7 0.00 0.00 0.00 31 1010.7
20260504205048 26 183 3.2 17.7 0.00 0.00 0.00 33 1010.7
20260504204634 26 42 6.4 17.7 0.00 0.00 0.00 33 1010.7
20260504204041 27 0 1.6 12.9 0.00 0.00 0.00 35 1010.7
20260504203544 26 228 3.2 9.7 0.00 0.00 0.00 32 1010.7
20260504203048 27 94 1.6 16.1 0.00 0.00 0.00 37 1010.7
20260504202542 26 86 4.8 16.1 0.00 0.00 0.00 33 1010.6
20260504202044 26 0 3.2 12.9 0.00 0.00 0.00 34 1010.7
20260504201551 26 113 3.2 11.3 0.00 0.00 0.00 35 1010.7
20260504201041 26 277 3.2 12.9 0.00 0.00 0.00 36 1010.7
20260504200545 26 198 1.6 12.9 0.00 0.00 0.00 35 1010.8
20260504200054 26 274 3.2 11.3 0.00 0.00 0.00 36 1010.9
20260504195542 26 84 1.6 16.1 0.00 0.00 0.00 39 1011.0
20260504195049 25 219 0.0 16.1 0.00 0.00 0.00 38 1011.0
20260504194555 25 87 3.2 16.1 0.00 0.00 0.00 36 1011.0
20260504194046 25 0 4.8 14.5 0.00 0.00 0.00 38 1011.0
20260504193542 25 304 3.2 16.1 0.00 0.00 0.00 37 1011.0
20260504193049 25 90 3.2 16.1 0.00 0.00 0.00 36 1011.0
20260504192541 26 90 1.6 12.9 0.00 0.00 0.00 35 1011.1
20260504192041 25 54 1.6 9.7 0.00 0.00 0.00 36 1011.2
20260504191549 25 299 3.2 14.5 0.00 0.00 0.00 36 1011.2
20260504191041 25 162 4.8 14.5 0.00 0.00 0.00 36 1011.3
20260504190544 25 73 3.2 9.7 0.00 0.00 0.00 38 1011.3
20260504190056 25 355 0.0 8.0 0.00 0.00 0.00 39 1011.3
20260504185545 25 172 1.6 9.7 0.00 0.00 0.00 38 1011.3
20260504185042 25 75 1.6 14.5 0.00 0.00 0.00 40 1011.3
20260504184603 24 101 6.4 14.5 0.00 0.00 0.00 37 1011.3
20260504184042 24 80 3.2 9.7 0.00 0.00 0.00 39 1011.4
20260504183545 24 5 1.6 4.8 0.00 0.00 0.00 40 1011.4
20260504183058 24 101 0.0 6.4 0.00 0.00 0.00 42 1011.4
20260504182546 24 86 1.6 6.4 0.00 0.00 0.00 44 1011.5
20260504182044 24 103 0.0 3.2 0.00 0.00 0.00 43 1011.5
20260504181551 24 0 0.0 4.8 0.00 0.00 0.00 47 1011.5
20260504181045 24 0 1.6 6.4 0.00 0.00 0.00 45 1011.5
20260504180545 23 0 1.6 6.4 0.00 0.00 0.00 45 1011.5
20260504180048 23 126 1.6 6.4 0.00 0.00 0.00 44 1011.4
20260504175545 23 109 1.6 6.4 0.00 0.00 0.00 44 1011.4
20260504175046 23 262 0.0 6.4 0.00 0.00 0.00 45 1011.3
20260504174551 23 73 3.2 6.4 0.00 0.00 0.00 49 1011.4
20260504174042 23 155 1.6 6.4 0.00 0.00 0.00 45 1011.4
20260504173541 23 226 1.6 16.1 0.00 0.00 0.00 46 1011.4
20260504173052 22 88 3.2 16.1 0.00 0.00 0.00 47 1011.5
20260504172541 22 232 1.6 6.4 0.00 0.00 0.00 47 1011.4
20260504172045 22 111 1.6 4.8 0.00 0.00 0.00 48 1011.5
20260504171549 22 0 1.6 6.4 0.00 0.00 0.00 47 1011.5
20260504171046 22 0 1.6 6.4 0.00 0.00 0.00 47 1011.5
20260504170545 21 272 0.0 9.7 0.00 0.00 0.00 51 1011.6
20260504151042 11 0 0.0 0.0 0.00 0.00 0.00 93 1011.3
20260504150541 11 0 0.0 0.0 0.00 0.00 0.00 94 1011.2
20260504141045 9 0 0.0 0.0 0.00 0.00 0.00 96 1010.9
20260504140544 8 0 0.0 0.0 0.00 0.00 0.00 96 1011.0
20260504130544 8 0 0.0 0.0 0.00 0.00 0.00 96 1010.7
20260504110543 8 0 0.0 0.0 0.00 0.00 0.00 95 1010.5
20260504100544 9 0 0.0 0.0 0.00 0.00 0.00 94 1010.5
20260504081553 10 0 0.0 0.0 0.00 0.00 0.00 92 1010.7
20260504081044 10 0 0.0 0.0 0.00 0.00 0.00 92 1010.7
20260504080542 10 0 0.0 0.0 0.00 0.00 0.00 92 1010.8